Location: Goettingen
(51.5300°N, 9.9433°E)
Time: 15:32:00
(UTC+02:00)

ISS - Pass Details

Date: 27 May 2020
Orbit: 417 x 420 km, 51.6° (Epoch: 25 May)

Event Time Altitude Azimuth Distance (km) Brightness Sun altitude
Rises 22:20:02 0° 282° (WNW) 2,367 1.0 -7.3°
Reaches altitude 10° 22:22:09 10° 279° (W) 1,502 -0.1 -7.5°
Maximum altitude 22:25:29 61° 198° (SSW) 481 -3.6 -7.9°
Drops below altitude 10° 22:28:48 10° 118° (ESE) 1,498 -1.5 -8.2°
Enters shadow 22:28:53 10° 118° (ESE) 1,527 -1.5 -8.2°
